FW8899 Weather Reports


time (UTC)temp
C
wind
direction
speed
KPH
gust
KPH
rain 1hr
cm
rain 24hr
cm
rain mn
cm
humidity
%
barometer
mb
20260502184257 22 90 3.2 11.3 0.00 0.00 0.00 42 1023.2
20260502183754 22 109 6.4 11.3 0.00 0.00 0.00 48 1023.4
20260502183250 21 354 4.8 14.5 0.00 0.00 0.00 43 1023.3
20260502182745 22 67 6.4 9.7 0.00 0.00 0.00 41 1023.4
20260502182241 21 100 0.0 11.3 0.00 0.00 0.00 39 1023.2
20260502181738 21 134 0.0 9.7 0.00 0.00 0.00 45 1023.7
20260502181237 20 90 3.2 9.7 0.00 0.00 0.00 43 1023.9
20260502180734 22 128 4.8 9.7 0.00 0.00 0.00 39 1023.8
20260502180232 21 92 6.4 9.7 0.00 0.00 0.00 41 1023.8
20260502170156 21 54 14.5 17.7 0.00 0.00 0.00 42 1024.1
20260502164142 20 102 4.8 9.7 0.00 0.00 0.00 48 1024.0
20260502163638 20 115 3.2 6.4 0.00 0.00 0.00 49 1024.1
20260502163135 20 61 8.0 14.5 0.00 0.00 0.00 45 1024.3
20260502162632 21 80 3.2 14.5 0.00 0.00 0.00 46 1024.1
20260502162129 20 86 1.6 3.2 0.00 0.00 0.00 47 1024.3
20260502161626 20 93 3.2 9.7 0.00 0.00 0.00 49 1024.2
20260502161123 20 56 4.8 6.4 0.00 0.00 0.00 50 1024.2
20260502160621 20 100 0.0 6.4 0.00 0.00 0.00 49 1024.0
20260502160120 20 124 6.4 9.7 0.00 0.00 0.00 44 1024.1
20260502152034 17 89 3.2 11.3 0.00 0.00 0.00 53 1023.7
20260502151531 17 101 4.8 14.5 0.00 0.00 0.00 56 1023.9
20260502151028 17 89 8.0 14.5 0.00 0.00 0.00 55 1024.0
20260502150526 18 101 4.8 9.7 0.00 0.00 0.00 63 1023.9
20260502130410 13 88 3.2 9.7 0.00 0.00 0.00 87 1023.0
20260502123353 11 98 0.0 0.0 0.00 0.00 0.00 96 1022.5
20260502122850 10 99 0.0 3.2 0.00 0.00 0.00 96 1022.5
20260502122345 10 100 0.0 0.0 0.00 0.00 0.00 96 1022.2
20260502121844 10 99 0.0 0.0 0.00 0.00 0.00 96 1022.1
20260502121341 10 99 0.0 3.2 0.00 0.00 0.00 96 1021.7
20260502120839 10 96 0.0 0.0 0.00 0.00 0.00 96 1021.9
20260502120334 10 101 0.0 0.0 0.00 0.00 0.00 96 1021.7
20260502115832 10 100 0.0 0.0 0.00 0.00 0.00 96 1021.6
20260502115329 10 99 0.0 0.0 0.00 0.00 0.00 96 1021.6
20260502114826 10 101 0.0 0.0 0.00 0.00 0.00 96 1021.6
20260502114323 10 101 0.0 0.0 0.00 0.00 0.00 96 1021.3
20260502113819 10 102 0.0 0.0 0.00 0.00 0.00 96 1021.3
20260502113317 10 100 0.0 0.0 0.00 0.00 0.00 96 1021.4
20260502112816 10 103 0.0 3.2 0.00 0.00 0.00 96 1021.4
20260502112312 10 102 0.0 0.0 0.00 0.00 0.00 96 1021.2
20260502111810 10 101 0.0 0.0 0.00 0.00 0.00 96 1021.1
20260502111307 10 97 0.0 0.0 0.00 0.00 0.00 96 1020.9
20260502110804 10 98 0.0 0.0 0.00 0.00 0.00 96 1021.0
20260502110302 10 95 0.0 0.0 0.00 0.00 0.00 96 1021.1
20260502105800 10 96 0.0 3.2 0.00 0.00 0.00 96 1020.9
20260502105256 10 93 0.0 0.0 0.00 0.00 0.00 96 1020.5
20260502104754 10 100 0.0 0.0 0.00 0.00 0.00 96 1020.5
20260502104251 11 90 1.6 3.2 0.00 0.00 0.00 96 1020.5
20260502103748 11 96 0.0 0.0 0.00 0.00 0.00 96 1020.5
20260502103246 11 104 0.0 3.2 0.00 0.00 0.00 96 1020.5
20260502102743 11 99 0.0 0.0 0.00 0.00 0.00 96 1020.6
20260502102239 11 95 0.0 3.2 0.00 0.00 0.00 96 1020.4
20260502101738 11 99 0.0 0.0 0.00 0.00 0.00 96 1020.3
20260502101235 11 100 0.0 0.0 0.00 0.00 0.00 96 1020.4
20260502100733 11 100 0.0 3.2 0.00 0.00 0.00 96 1020.2
20260502100232 11 100 0.0 0.0 0.00 0.00 0.00 96 1020.2
20260502091206 11 101 0.0 0.0 0.00 0.00 0.00 96 1020.2
20260502090703 11 98 0.0 0.0 0.00 0.00 0.00 96 1020.1
20260502090200 11 98 0.0 0.0 0.00 0.00 0.00 96 1020.1
20260502071055 12 92 0.0 0.0 0.00 0.00 0.00 96 1019.9
20260502070553 12 96 0.0 0.0 0.00 0.00 0.00 96 1019.7
20260502070051 12 96 0.0 0.0 0.00 0.00 0.00 96 1020.1
20260502065549 12 98 0.0 0.0 0.00 0.00 0.00 96 1020.1
20260502065047 12 98 0.0 0.0 0.00 0.00 0.00 96 1020.1
20260502064545 12 96 0.0 0.0 0.00 0.00 0.00 96 1020.4
20260502064042 12 98 0.0 0.0 0.00 0.00 0.00 96 1020.3
20260502063539 12 99 0.0 3.2 0.00 0.00 0.00 96 1020.2
20260502063037 12 98 0.0 0.0 0.00 0.00 0.00 96 1020.4
20260502062534 12 100 0.0 0.0 0.00 0.00 0.00 96 1020.5
20260502062032 12 101 0.0 0.0 0.00 0.00 0.00 96 1020.5
20260502061530 12 100 0.0 0.0 0.00 0.00 0.00 96 1020.7
20260502061027 12 100 0.0 0.0 0.00 0.00 0.00 96 1020.7
20260502060522 12 97 0.0 0.0 0.00 0.00 0.00 96 1020.5
20260502060019 12 100 0.0 0.0 0.00 0.00 0.00 96 1020.4
20260502055516 12 99 0.0 0.0 0.00 0.00 0.00 96 1020.4
20260502055015 12 97 0.0 0.0 0.00 0.00 0.00 96 1020.7
20260502054513 12 98 0.0 0.0 0.00 0.00 0.00 96 1020.7
20260502054010 12 99 0.0 0.0 0.00 0.00 0.00 96 1020.5
20260502053507 12 99 0.0 0.0 0.00 0.00 0.00 96 1020.7
20260502053005 12 95 0.0 0.0 0.00 0.00 0.00 96 1020.3
20260502052503 12 98 0.0 0.0 0.00 0.00 0.00 96 1020.4
20260502052001 12 97 0.0 0.0 0.00 0.00 0.00 96 1020.3
20260502051459 12 93 0.0 0.0 0.00 0.00 0.00 96 1020.2
20260502050955 12 97 0.0 0.0 0.00 0.00 0.00 96 1020.2
20260502050452 12 95 0.0 0.0 0.00 0.00 0.00 96 1020.1
20260502045949 12 95 0.0 0.0 0.00 1.14 1.14 96 1019.9
20260502045446 12 90 0.0 3.2 0.00 1.14 1.14 96 1020.1
20260502044943 12 88 0.0 3.2 0.00 1.14 1.14 96 1020.3
20260502044438 12 93 0.0 3.2 0.00 1.14 1.14 96 1020.2
20260502043936 12 93 0.0 0.0 0.00 1.14 1.14 96 1020.1
20260502043434 12 102 0.0 0.0 0.00 1.14 1.14 96 1020.3
20260502042933 12 102 0.0 0.0 0.00 1.14 1.14 96 1020.2
20260502042430 12 104 0.0 3.2 0.00 1.14 1.14 96 1020.0
20260502041927 12 100 0.0 0.0 0.00 1.14 1.14 96 1020.3
20260502041425 12 94 0.0 0.0 0.00 1.14 1.14 96 1020.2
20260502040922 12 100 0.0 0.0 0.00 1.14 1.14 96 1020.1
20260502040418 12 101 0.0 0.0 0.00 1.14 1.14 96 1020.2
20260502035915 12 96 0.0 0.0 0.00 1.14 1.14 96 1019.9
20260502035411 12 97 0.0 0.0 0.00 1.14 1.14 96 1020.1
20260502034909 12 101 0.0 0.0 0.00 1.14 1.14 96 1020.0
20260502034408 12 107 0.0 0.0 0.00 1.14 1.14 96 1019.8
20260502033905 12 98 0.0 0.0 0.00 1.14 1.14 96 1019.6
20260502033403 12 96 0.0 0.0 0.00 1.14 1.14 96 1019.8
20260502032859 12 97 0.0 0.0 0.00 1.14 1.14 96 1019.9
20260502032355 12 96 0.0 0.0 0.00 1.14 1.14 96 1020.1
20260502031853 12 100 0.0 0.0 0.00 1.14 1.14 96 1019.5
20260502031351 12 102 0.0 0.0 0.00 1.14 1.14 96 1019.5
20260502030849 12 102 1.6 3.2 0.00 1.14 1.14 96 1019.8
20260502030347 12 97 0.0 3.2 0.00 1.14 1.14 96 1020.2
20260502025844 12 102 0.0 0.0 0.00 1.14 1.14 96 1020.5
20260502025342 12 105 0.0 3.2 0.00 1.14 1.14 96 1020.2
20260502024839 12 109 0.0 3.2 0.00 1.14 1.14 96 1020.0
20260502024337 12 101 0.0 0.0 0.00 1.14 1.14 96 1019.7
20260502023835 12 95 0.0 3.2 0.00 1.14 1.14 96 1019.5
20260502023332 12 95 0.0 0.0 0.18 1.14 1.14 96 1019.5
20260502022830 12 100 0.0 0.0 0.18 1.14 1.14 96 1019.9
20260502022326 12 102 0.0 0.0 0.00 1.12 1.12 96 1019.6
20260502021823 12 99 0.0 0.0 0.00 1.12 1.12 96 1019.5
20260502021320 12 97 0.0 0.0 0.00 1.12 1.12 96 1019.4
20260502020817 12 108 0.0 3.2 0.00 1.12 1.12 96 1019.3
20260502020315 12 101 0.0 0.0 0.00 1.12 1.12 96 1019.1
20260502015812 12 99 0.0 0.0 0.13 1.12 1.12 96 1019.3
20260502015309 13 85 1.6 3.2 0.13 1.12 1.12 96 1018.8
20260502014806 13 94 1.6 3.2 0.00 1.09 1.09 96 1018.6
20260502014303 13 97 0.0 0.0 0.00 1.09 1.09 96 1018.8
20260502013759 13 95 0.0 0.0 0.00 1.09 1.09 96 1018.7
20260502013255 13 95 0.0 0.0 0.18 1.09 1.09 96 1018.5
20260502012751 13 99 0.0 0.0 0.18 1.09 1.09 96 1018.7
20260502012249 13 99 0.0 0.0 0.00 1.07 1.07 96 1019.0
20260502011746 13 102 0.0 0.0 0.00 1.07 1.07 96 1019.1
20260502011242 13 96 0.0 0.0 0.00 1.07 1.07 96 1018.7
20260502010740 13 99 0.0 0.0 0.00 1.07 1.07 96 1018.8
20260502010236 13 99 0.0 0.0 0.00 1.07 1.07 96 1018.5
20260502005733 13 95 0.0 3.2 0.00 1.07 1.07 96 1018.6
20260502005231 13 98 0.0 3.2 0.00 1.07 1.07 96 1018.8
20260502004727 13 97 0.0 0.0 0.00 1.07 1.07 95 1018.6
20260502004224 13 94 0.0 0.0 0.00 1.07 1.07 95 1018.7
20260502003722 13 97 0.0 0.0 0.00 1.07 1.07 95 1018.7
20260502003219 13 97 0.0 3.2 0.00 1.07 1.07 95 1018.5
20260502002714 13 95 0.0 0.0 0.00 1.07 1.07 94 1018.7
20260502002213 13 98 0.0 0.0 0.00 1.07 1.07 94 1018.6
20260502001709 13 99 0.0 0.0 0.00 1.07 1.07 94 1018.6
20260502001208 13 97 0.0 0.0 0.00 1.07 1.07 94 1018.6
20260502000704 13 96 0.0 0.0 0.00 1.07 1.07 93 1018.9
20260502000203 13 99 0.0 0.0 0.00 1.07 1.07 93 1018.6
20260501235658 13 97 0.0 6.4 0.00 1.07 1.07 93 1018.7
20260501235154 13 91 1.6 3.2 0.00 1.07 1.07 92 1018.5
20260501234650 13 97 0.0 3.2 0.00 1.07 1.07 92 1018.5
20260501234147 13 97 0.0 3.2 0.00 1.07 1.07 92 1018.5
20260501233645 13 99 0.0 3.2 0.00 1.07 1.07 91 1018.8
20260501233142 13 95 0.0 3.2 0.00 1.07 1.07 90 1018.7
20260501232638 13 96 0.0 3.2 0.00 1.07 1.07 90 1019.0
20260501232136 13 96 0.0 0.0 0.00 1.07 1.07 89 1018.9
20260501231633 13 97 0.0 0.0 0.00 1.07 1.07 88 1018.9
20260501231131 13 87 1.6 3.2 0.00 1.07 1.07 87 1018.9
20260501224715 14 83 3.2 6.4 0.00 1.07 1.07 87 1017.7
20260501224213 14 83 3.2 6.4 0.00 1.07 1.07 87 1017.7
20260501223709 14 95 3.2 3.2 0.00 1.07 1.07 87 1017.8
20260501223206 14 103 1.6 3.2 0.00 1.07 1.07 87 1017.7
20260501222702 14 54 6.4 6.4 0.00 1.07 1.07 87 1017.6
20260501222159 14 59 4.8 9.7 0.00 1.07 1.07 86 1017.9
20260501221656 14 100 3.2 9.7 0.00 1.07 1.07 86 1017.8
20260501221153 14 104 1.6 3.2 0.00 1.07 1.07 86 1017.6
20260501220651 14 97 0.0 0.0 0.00 1.07 1.07 86 1017.6
20260501220148 14 80 3.2 17.7 0.00 1.07 1.07 84 1017.7
20260501215645 14 40 6.4 9.7 0.00 1.07 1.07 85 1017.7
20260501215140 14 94 4.8 6.4 0.00 1.07 1.07 85 1017.4
20260501214635 14 56 4.8 9.7 0.00 1.07 1.07 85 1017.4
20260501214131 14 72 3.2 6.4 0.00 1.07 1.07 86 1017.3
20260501213628 14 91 0.0 3.2 0.00 1.07 1.07 85 1017.4
20260501213124 14 85 1.6 6.4 0.00 1.07 1.07 86 1017.4
20260501212621 14 68 11.3 11.3 0.00 1.07 1.07 85 1017.2
20260501212117 14 89 3.2 11.3 0.00 1.07 1.07 85 1017.0
20260501211614 14 53 11.3 17.7 0.00 1.07 1.07 84 1016.7
20260501211112 14 106 1.6 14.5 0.00 1.07 1.07 86 1016.5
20260501210609 14 28 11.3 24.1 0.00 1.07 1.07 85 1016.5
20260501210105 14 75 3.2 9.7 0.00 1.07 1.07 86 1016.4
20260501205601 14 127 9.7 11.3 0.00 1.07 1.07 86 1016.2
20260501205059 13 68 9.7 20.9 0.00 1.07 1.07 86 1015.7
20260501204555 13 2 6.4 24.1 0.00 1.07 1.07 87 1016.2
20260501204051 13 40 11.3 17.7 0.00 1.07 1.07 87 1016.1
20260501203548 13 129 16.1 20.9 0.00 1.07 1.07 88 1016.2
20260501203046 13 57 12.9 27.4 0.00 1.07 1.07 89 1016.2
20260501202543 13 103 4.8 20.9 0.00 1.07 1.07 90 1016.1
20260501202039 13 48 8.0 17.7 0.00 1.07 1.07 90 1016.2
20260501201536 13 84 3.2 14.5 0.00 1.07 1.07 91 1016.4
20260501201033 12 79 6.4 14.5 0.00 1.07 1.07 92 1016.1
20260501200530 13 89 6.4 11.3 0.00 1.07 1.07 93 1016.6
20260501200027 12 31 16.1 20.9 0.00 1.07 1.07 93 1017.2
20260501195524 12 97 4.8 9.7 0.00 1.07 1.07 94 1017.5
20260501195020 12 91 0.0 6.4 0.00 1.07 1.07 94 1017.9
20260501194516 12 75 4.8 9.7 0.00 1.07 1.07 95 1018.0
20260501194011 12 66 3.2 9.7 0.00 1.07 1.07 96 1018.0
20260501193510 12 101 1.6 3.2 0.00 1.07 1.07 96 1018.2
20260501193008 12 80 0.0 3.2 0.00 1.07 1.07 96 1018.2
20260501192504 12 94 3.2 6.4 0.00 1.07 1.07 96 1018.0
20260501192002 12 85 3.2 9.7 0.00 1.07 1.07 96 1018.0
20260501191459 12 79 6.4 9.7 0.00 1.07 1.07 96 1017.8
20260501190956 12 86 3.2 11.3 0.00 1.07 1.07 96 1018.3
20260501190451 12 79 4.8 11.3 0.00 1.07 1.07 96 1018.3
20260501185947 12 64 6.4 14.5 0.00 1.07 1.07 96 1018.2
20260501185443 12 76 9.7 11.3 0.00 1.07 1.07 96 1018.3
20260501184939 12 84 3.2 14.5 0.00 1.07 1.07 96 1018.6
20260501184436 12 71 3.2 11.3 0.13 1.07 1.07 96 1018.6